Date String (YYYY-MM-DD hh:mm:ss) UTC,Instrument flags,Ambient pressure (hPa),Sample flow (lpm),Bypass flow (lpm),Sample temperature (°C),Ambient temperature (°C),ASC tube jacket temperature (°C),LED temperature (°C),Box temperature (°C),Sample RH (%),Span deviation,Mass concentration (μg/m³),Mass concentration (μg/m³),Mass concentration (μg/m³)
DateTimeUTC,F1_M11,P_M11,Q1_M11,Q2_M11,T1_M11,T2_M11,T3_M11,T4_M11,T5_M11,U1_M11,ZSPAN_M11,X2_M11,X0_M11,X1_M11
2021-11-27 21:00:00,,0830.5,4.98,0.00,25.7,25.0,00.0,34.7,27.5,11.2,0000.0,0002.54,0007.40,0001.78
2021-11-27 21:01:00,,0830.4,5.00,0.00,25.7,25.0,00.0,34.7,27.5,11.2,0000.0,0002.53,0007.34,0001.76
2021-11-27 21:02:00,,0830.4,4.99,0.00,25.7,25.0,00.0,34.7,27.5,11.1,0000.0,0002.49,0007.20,0001.72
2021-11-27 21:03:00,,0830.4,5.01,0.00,25.7,25.0,00.0,34.7,27.5,11.1,0000.0,0002.46,0007.19,0001.67
2021-11-27 21:04:00,,0830.3,5.00,0.00,25.7,25.0,00.0,34.7,27.5,11.1,0000.0,0002.47,0007.30,0001.64
2021-11-27 21:05:00,,0830.3,5.01,0.00,25.7,25.0,00.0,34.7,27.5,11.2,0000.0,0002.42,0007.38,0001.61
2021-11-27 21:06:00,,0830.3,5.00,0.00,25.7,25.0,00.0,34.7,27.5,11.2,0000.0,0002.36,0008.42,0001.55
2021-11-27 21:07:00,,0830.2,4.98,0.00,25.7,25.0,00.0,34.7,27.5,11.2,0000.0,0002.23,0007.37,0001.50
2021-11-27 21:08:00,,0830.3,5.00,0.00,25.7,25.0,00.0,34.7,27.5,11.2,0000.0,0002.17,0006.80,0001.47
2021-11-27 21:09:00,,0830.3,5.01,0.00,25.7,25.1,00.0,34.7,27.5,11.2,0000.0,0002.24,0006.84,0001.50
2021-11-27 21:10:00,,0830.4,4.99,0.00,25.7,25.1,00.0,34.7,27.5,11.2,0000.0,0002.34,0006.53,0001.57
2021-11-27 21:11:00,,0830.4,4.99,0.00,25.7,25.1,00.0,34.7,27.5,11.2,0000.0,0002.41,0006.57,0001.65
2021-11-27 21:12:00,,0830.4,5.01,0.00,25.7,25.1,00.0,34.7,27.5,11.2,0000.0,0002.50,0006.86,0001.73
2021-11-27 21:13:00,,0830.4,4.99,0.00,25.7,25.1,00.0,34.7,27.5,11.2,0000.0,0002.64,0007.21,0001.82
2021-11-27 21:14:00,,0830.5,5.00,0.00,25.7,25.1,00.0,34.7,27.5,11.2,0000.0,0002.76,0007.84,0001.91
2021-11-27 21:15:00,,0830.4,4.99,0.00,25.7,25.1,00.0,34.7,27.5,11.1,0000.0,0002.79,0008.47,0001.97
2021-11-27 21:16:00,,0830.4,5.00,0.00,25.7,25.1,00.0,34.7,27.5,11.2,0000.0,0002.81,0008.33,0002.01
2021-11-27 21:17:00,,0830.4,5.00,0.00,25.7,25.1,00.0,34.7,27.5,11.1,0000.0,0002.78,0007.04,0002.06
2021-11-27 21:18:00,,0830.4,4.98,0.00,25.7,25.1,00.0,34.7,27.5,11.1,0000.0,0002.83,0006.95,0002.09
2021-11-27 21:19:00,,0830.4,5.01,0.00,25.7,25.1,00.0,34.7,27.5,11.1,0000.0,0002.86,0007.08,0002.10
2021-11-27 21:20:00,,0830.4,4.99,0.00,25.7,25.0,00.0,34.7,27.5,11.1,0000.0,0002.82,0007.16,0002.06
2021-11-27 21:21:00,,0830.4,5.00,0.00,25.7,25.1,00.0,34.7,27.5,11.2,0000.0,0002.70,0007.02,0001.99
2021-11-27 21:22:00,,0830.5,5.00,0.00,25.7,25.1,00.0,34.7,27.5,11.2,0000.0,0002.66,0006.92,0001.92
2021-11-27 21:23:00,,0830.5,4.99,0.00,25.7,25.1,00.0,34.7,27.5,11.1,0000.0,0002.59,0006.71,0001.84
2021-11-27 21:24:00,,0830.5,5.01,0.00,25.7,25.1,00.0,34.7,27.5,11.1,0000.0,0002.49,0006.56,0001.77
2021-11-27 21:25:00,,0830.5,4.99,0.00,25.7,25.1,00.0,34.7,27.5,11.1,0000.0,0002.41,0005.68,0001.71
2021-11-27 21:26:00,,0830.4,5.01,0.00,25.7,25.1,00.0,34.7,27.5,11.1,0000.0,0002.37,0004.40,0001.63
2021-11-27 21:27:00,,0830.4,4.98,0.00,25.7,25.1,00.0,34.7,27.5,11.1,0000.0,0002.34,0004.42,0001.58
2021-11-27 21:28:00,,0830.4,5.01,0.00,25.7,25.1,00.0,34.7,27.5,11.2,0000.0,0002.33,0004.48,0001.54
2021-11-27 21:29:00,,0830.4,5.00,0.00,25.7,25.1,00.0,34.7,27.6,11.1,0000.0,0002.30,0004.48,0001.51
2021-11-27 21:30:00,,0830.4,4.99,0.00,25.7,25.1,00.0,34.7,27.5,11.1,0000.0,0002.30,0006.61,0001.50
2021-11-27 21:31:00,,0830.4,5.01,0.00,25.7,25.1,00.0,34.7,27.5,11.0,0000.0,0002.29,0006.97,0001.48
2021-11-27 21:32:00,,0830.5,5.00,0.00,25.7,25.1,00.0,34.7,27.5,11.0,0000.0,0002.28,0006.97,0001.45
2021-11-27 21:33:00,,0830.5,4.99,0.00,25.7,25.1,00.0,34.7,27.5,11.0,0000.0,0002.20,0006.87,0001.42
2021-11-27 21:34:00,,0830.5,4.99,0.00,25.7,25.1,00.0,34.7,27.5,11.0,0000.0,0002.17,0006.90,0001.40
2021-11-27 21:35:00,,0830.5,5.01,0.00,25.7,25.1,00.0,34.7,27.5,11.0,0000.0,0002.09,0007.17,0001.36
2021-11-27 21:36:00,,0830.4,4.99,0.00,25.7,25.1,00.0,34.7,27.5,11.0,0000.0,0002.03,0008.75,0001.32
2021-11-27 21:37:00,,0830.4,5.01,0.00,25.7,25.1,00.0,34.7,27.5,11.0,0000.0,0001.97,0009.29,0001.30
2021-11-27 21:38:00,,0830.5,4.99,0.00,25.7,25.1,00.0,34.7,27.5,11.0,0000.0,0001.94,0009.24,0001.27
2021-11-27 21:39:00,,0830.6,5.00,0.00,25.7,25.1,00.0,34.7,27.6,10.9,0000.0,0001.91,0009.44,0001.25
2021-11-27 21:40:00,,0830.6,5.02,0.00,25.7,25.1,00.0,34.7,27.5,10.9,0000.0,0001.88,0009.54,0001.22
2021-11-27 21:41:00,,0830.6,5.00,0.00,25.7,25.1,00.0,34.7,27.5,10.9,0000.0,0001.87,0008.34,0001.20
2021-11-27 21:42:00,,0830.6,5.01,0.00,25.7,25.1,00.0,34.7,27.5,10.9,0000.0,0001.85,0008.10,0001.17
2021-11-27 21:43:00,,0830.6,4.98,0.00,25.7,25.1,00.0,34.7,27.5,10.9,0000.0,0001.88,0008.13,0001.17
2021-11-27 21:44:00,,0830.6,5.01,0.00,25.7,25.1,00.0,34.7,27.5,10.9,0000.0,0001.91,0008.33,0001.17
2021-11-27 21:45:00,,0830.6,4.98,0.00,25.7,25.1,00.0,34.7,27.5,11.0,0000.0,0001.91,0008.39,0001.17
2021-11-27 21:46:00,,0830.6,5.02,0.00,25.7,25.1,00.0,34.7,27.6,11.0,0000.0,0001.93,0008.17,0001.15
2021-11-27 21:47:00,,0830.6,4.99,0.00,25.7,25.1,00.0,34.7,27.6,10.9,0000.0,0001.93,0006.46,0001.14
2021-11-27 21:48:00,,0830.6,5.01,0.00,25.7,25.1,00.0,34.7,27.5,11.0,0000.0,0001.92,0005.42,0001.14
2021-11-27 21:49:00,,0830.5,5.00,0.00,25.7,25.1,00.0,34.7,27.5,11.0,0000.0,0001.94,0005.58,0001.14
2021-11-27 21:50:00,,0830.5,4.99,0.00,25.7,25.1,00.0,34.7,27.5,10.9,0000.0,0002.00,0005.44,0001.15
2021-11-27 21:51:00,,0830.5,5.01,0.00,25.7,25.1,00.0,34.7,27.5,10.9,0000.0,0002.04,0005.31,0001.17
2021-11-27 21:52:00,,0830.5,5.00,0.00,25.7,25.1,00.0,34.7,27.5,11.0,0000.0,0001.99,0005.14,0001.17
2021-11-27 21:53:00,,0830.5,4.99,0.00,25.7,25.1,00.0,34.7,27.5,11.0,0000.0,0001.98,0005.38,0001.18
2021-11-27 21:54:00,,0830.5,5.00,0.00,25.8,25.1,00.0,34.7,27.5,11.0,0000.0,0002.00,0005.48,0001.18
2021-11-27 21:55:00,,0830.6,5.01,0.00,25.8,25.1,00.0,34.8,27.6,11.0,0000.0,0002.01,0006.21,0001.18
2021-11-27 21:56:00,,0830.6,4.99,0.00,25.8,25.1,00.0,34.8,27.5,11.0,0000.0,0002.04,0006.91,0001.17
2021-11-27 21:57:00,,0830.5,5.00,0.00,25.8,25.2,00.0,34.8,27.5,10.9,0000.0,0002.07,0008.16,0001.18
2021-11-27 21:58:00,,0830.4,5.01,0.00,25.8,25.1,00.0,34.8,27.5,10.9,0000.0,0002.06,0008.35,0001.19
2021-11-27 21:59:00,,0830.4,4.99,0.00,25.8,25.1,00.0,34.8,27.5,10.9,0000.0,0002.12,0009.17,0001.21
